Location: Hains Lake
(37.8540°N, 99.8578°W)
Time: 02:06:54
(UTC+00:00)

Envisat - Pass Details

Date: 11 December 2019
Orbit: 764 x 766 km, 98.1° (Epoch: 22 January)

Event Time Altitude Azimuth Distance (km) Brightness Sun altitude
Rises 23:38:40 0° 133° (SE) 3,221 6.0 -4.0°
Reaches altitude 10° 23:41:19 10° 120° (ESE) 2,299 5.2 -4.5°
Maximum altitude 23:45:21 25° 67° (ENE) 1,530 4.0 -5.2°
Drops below altitude 10° 23:49:24 10° 14° (NNE) 2,311 5.1 -5.9°
Sets 23:52:04 0° 2° (N) 3,241 6.0 -6.4°
